Weather History for Tyler, TX

Change the Weather History Date:

Tuesday, November 2, 2010

  Actual Average Record
Temperature  
Mean Temperature 59 °F 61 °F  
Max Temperature 64 °F 71 °F 87 °F (1955)
Min Temperature 54 °F 51 °F 26 °F (1963)
Degree Days  
Heating Degree Days 6 6  
Month to date heating degree days 6 11  
Since 1 July heating degree days 45 88  
Cooling Degree Days 0 2  
Month to date cooling degree days 7 4  
Year to date cooling degree days 2984 2397  
Growing Degree Days 9 (Base 50)    
Moisture  
Dew Point 54 °F    
Average Humidity 82    
Maximum Humidity 100    
Minimum Humidity 63    
Precipitation  
Precipitation 0.79 in 0.14 in 2.71 in (2000)
Month to date precipitation 0.79 0.29  
Year to date precipitation 28.74 37.74  
Snow  
Snow 0.00 in - - ()
Month to date snowfall 0.0  
Since 1 July snowfall 0.0  
Since 1 September snowfall 0.0  
Snow Depth 0.00 in    
Sea Level Pressure  
Sea Level Pressure 29.98 in    
Wind  
Wind Speed 9 mph (NNW)    
Max Wind Speed 18 mph    
Max Gust Speed 29 mph    
Visibility 7 miles    
Events Rain , Thunderstorm    
T = Trace of Precipitation, MM = Missing Value Source: NWS Daily Summary

Daily Weather History Graph

Daily Weather History Graph

Search for Another Location

Airport:

Trip Planner

Search our weather history database for the weather conditions in past years. The results will help you decide how hot, cold, wet, or windy it might be!

Date:

Astronomy

Nov. 02, 2010 Rise Set
Actual Time 7:39 AM CDT 6:30 PM CDT
Civil Twilight 7:14 AM CDT 6:55 PM CDT
Nautical Twilight 6:45 AM CDT 7:24 PM CDT
Astronomical Twilight 6:16 AM CDT 7:53 PM CDT
Moon 3:40 AM CDT (11/2) 3:59 PM CDT (11/2)
Length of Visible Light 11h 41m
Length of Day
10h 50m
Waning Crescent, 16% of the Moon is Illuminated
Nov 2
Waning Crescent
Nov 5
New
Nov 13
First Quarter
Nov 21
Full
Nov 28
Last Quarter

Hourly Weather History & Observations

Time (CDT) Temp. Dew Point Humidity Pressure Visibility Wind Dir Wind Speed Gust Speed Precip Events Conditions
12:06 AM 64.4 °F 51.8 °F 64% 30.02 in 10.0 mi NNW 10.4 mph - N/A   Mostly Cloudy
12:53 AM 64.9 °F 52.0 °F 63% 29.99 in 10.0 mi North 6.9 mph - N/A   Overcast
1:53 AM 64.0 °F 52.0 °F 65% 29.99 in 10.0 mi NNW 8.1 mph - N/A   Overcast
2:26 AM 62.6 °F 51.8 °F 68% 30.02 in 10.0 mi NNW 10.4 mph - 0.00 in Rain Light Rain
2:44 AM 62.6 °F 51.8 °F 68% 30.01 in 10.0 mi NNW 10.4 mph - 0.00 in Rain , Thunderstorm Light Rain
2:53 AM 61.0 °F 53.1 °F 75% 30.00 in 9.0 mi NW 9.2 mph - 0.00 in Rain , Thunderstorm Light Rain
3:01 AM 60.8 °F 53.6 °F 77% 30.01 in 8.0 mi NW 10.4 mph - 0.01 in Rain Light Rain
3:29 AM 59.0 °F 55.4 °F 88% 30.01 in 5.0 mi WNW 6.9 mph - 0.06 in Rain Rain
3:53 AM 57.9 °F 55.0 °F 90% 29.96 in 3.0 mi Calm Calm - 0.10 in Rain Rain
3:57 AM 57.2 °F 55.4 °F 94% 30.00 in 3.0 mi West 9.2 mph - 0.01 in Rain Rain
4:04 AM 57.2 °F 55.4 °F 94% 30.01 in 5.0 mi West 9.2 mph - 0.03 in Rain Rain
4:53 AM 55.9 °F 54.0 °F 93% 29.96 in 10.0 mi NNW 9.2 mph - 0.09 in Rain Light Rain
5:11 AM 55.4 °F 53.6 °F 94% 29.99 in 10.0 mi WNW 8.1 mph - 0.00 in   Mostly Cloudy
5:45 AM 55.4 °F 53.6 °F 94% 29.99 in 10.0 mi NNW 5.8 mph - 0.00 in   Mostly Cloudy
5:53 AM 55.9 °F 54.0 °F 93% 29.98 in 10.0 mi Calm Calm - 0.00 in   Mostly Cloudy
6:53 AM 55.9 °F 54.0 °F 93% 30.02 in 9.0 mi WSW 8.1 mph - 0.00 in   Overcast
7:53 AM 55.9 °F 53.1 °F 90% 30.00 in 10.0 mi WSW 5.8 mph - N/A   Overcast
8:04 AM 55.4 °F 53.6 °F 94% 30.01 in 10.0 mi SW 4.6 mph - N/A   Overcast
8:53 AM 55.9 °F 53.1 °F 90% 30.00 in 10.0 mi West 4.6 mph - N/A   Overcast
9:53 AM 55.9 °F 52.0 °F 87% 30.02 in 10.0 mi NW 8.1 mph - N/A   Overcast
10:26 AM 55.4 °F 51.8 °F 88% 30.02 in 10.0 mi NW 6.9 mph - N/A   Overcast
10:53 AM 55.9 °F 53.1 °F 90% 30.01 in 10.0 mi WNW 6.9 mph - N/A   Overcast
11:08 AM 57.2 °F 53.6 °F 88% 30.02 in 10.0 mi Variable 5.8 mph - N/A   Overcast
11:36 AM 55.4 °F 51.8 °F 88% 30.02 in 10.0 mi West 6.9 mph - N/A   Overcast
11:53 AM 55.9 °F 53.1 °F 90% 30.00 in 2.0 mi WNW 9.2 mph - 0.02 in Rain Heavy Rain
12:05 PM 55.4 °F 53.6 °F 94% 30.01 in 6.0 mi WNW 8.1 mph - 0.01 in Rain Light Rain
12:13 PM 55.4 °F 53.6 °F 94% 30.00 in 7.0 mi WNW 11.5 mph - 0.01 in Rain Light Rain
12:53 PM 54.0 °F 53.1 °F 97% 30.00 in 8.0 mi NW 10.4 mph - 0.01 in   Overcast
1:53 PM 55.9 °F 55.0 °F 97% 29.96 in 3.0 mi North 5.8 mph - 0.03 in Rain Light Rain
2:14 PM 55.4 °F 55.4 °F 100% 29.96 in 2.5 mi NNW 5.8 mph - 0.02 in Rain Light Rain
2:21 PM 57.2 °F 55.4 °F 94% 29.95 in 3.0 mi North 6.9 mph - 0.03 in Rain Light Rain
2:53 PM 57.9 °F 57.0 °F 97% 29.94 in 5.0 mi North 6.9 mph - 0.04 in Rain Light Rain
3:27 PM 59.0 °F 57.2 °F 94% 29.95 in 2.0 mi NNW 5.8 mph - 0.04 in Rain Rain
3:39 PM 59.0 °F 57.2 °F 94% 29.95 in 2.5 mi NW 6.9 mph - 0.06 in Rain Light Rain
3:48 PM 59.0 °F 57.2 °F 94% 29.95 in 3.0 mi NNW 6.9 mph - 0.06 in Rain Light Rain
3:53 PM 59.0 °F 57.9 °F 96% 29.94 in 3.0 mi NNW 8.1 mph - 0.07 in Rain Light Rain
4:32 PM 57.2 °F 57.2 °F 100% 29.95 in 2.0 mi North 11.5 mph - 0.03 in Rain Rain
4:50 PM 57.2 °F 57.2 °F 100% 29.94 in 3.0 mi North 10.4 mph - 0.06 in Rain Rain
4:53 PM 57.9 °F 57.0 °F 97% 29.94 in 2.5 mi North 12.7 mph 19.6 mph 0.06 in Rain Rain
5:03 PM 57.2 °F 55.4 °F 94% 29.94 in 5.0 mi North 12.7 mph 18.4 mph 0.01 in Rain Light Rain
5:53 PM 57.0 °F 55.0 °F 93% 29.95 in 2.0 mi North 11.5 mph - 0.08 in Rain Heavy Rain
6:00 PM 55.4 °F 55.4 °F 100% 29.96 in 1.8 mi North 11.5 mph - 0.02 in Rain Rain
6:05 PM 55.4 °F 55.4 °F 100% 29.95 in 3.0 mi North 11.5 mph - 0.03 in Rain Rain
6:21 PM 55.4 °F 55.4 °F 100% 29.95 in 5.0 mi North 12.7 mph - 0.06 in Rain Light Rain
6:32 PM 55.4 °F 55.4 °F 100% 29.95 in 6.0 mi North 16.1 mph - 0.07 in Rain Light Rain
6:45 PM 55.4 °F 55.4 °F 100% 29.93 in 2.5 mi North 18.4 mph - 0.15 in Rain Heavy Rain
6:53 PM 55.9 °F 55.0 °F 97% 29.94 in 2.5 mi North 15.0 mph 23.0 mph 0.20 in Rain Heavy Rain
7:00 PM 55.4 °F 55.4 °F 100% 29.96 in 4.0 mi NE 8.1 mph 23.0 mph 0.02 in Rain Rain
7:10 PM 55.4 °F 55.4 °F 100% 29.97 in 5.0 mi North 11.5 mph 16.1 mph 0.04 in Rain Rain
7:27 PM 55.4 °F 55.4 °F 100% 29.97 in 10.0 mi North 13.8 mph - 0.04 in Rain Light Rain
7:53 PM 55.9 °F 55.9 °F 100% 29.97 in 9.0 mi North 10.4 mph - 0.04 in Rain Light Rain
8:53 PM 55.9 °F 55.0 °F 97% 29.97 in 8.0 mi North 13.8 mph - 0.05 in Rain Light Rain
9:53 PM 55.9 °F 54.0 °F 93% 29.97 in 10.0 mi North 10.4 mph 19.6 mph 0.00 in   Overcast
10:53 PM 55.9 °F 54.0 °F 93% 29.98 in 10.0 mi North 9.2 mph 17.3 mph 0.00 in Rain Light Rain
11:53 PM 55.0 °F 52.0 °F 89% 29.96 in 10.0 mi NE 10.4 mph - 0.00 in Rain Light Rain